This is the latest recevied weather packets stored in our database for station/object K1ZK-13. If no packets are shown the sender has not sent any weather packets the latest 10 day(s).
| Time | Temp. | Humidity | Pressure | Rain* | Wind** | Luminosity | Snow |
|---|---|---|---|---|---|---|---|
| 1777504076 | 18.89° C | 52% | 1007.7 hPa | 0 mm | - | 20 W/m² | - |
| 1777503773 | 18.89° C | 51% | 1007.6 hPa | 0 mm | - | 20 W/m² | - |
| 1777503470 | 18.89° C | 51% | 1007.5 hPa | 0 mm | - | 25 W/m² | - |
| 1777503165 | 18.89° C | 51% | 1007.7 hPa | 0 mm | - | 20 W/m² | - |
| 1777502863 | 19.44° C | 49% | 1007.4 hPa | 0 mm | - | 23 W/m² | - |
| 1777502561 | 19.44° C | 50% | 1007.4 hPa | 0 mm | - | 36 W/m² | - |
| 1777502258 | 19.44° C | 50% | 1007.5 hPa | 0 mm | - | 45 W/m² | - |
| 1777501954 | 19.44° C | 50% | 1007.5 hPa | 0 mm | - | 50 W/m² | - |
| 1777501652 | 19.44° C | 51% | 1007.5 hPa | 0 mm | - | 48 W/m² | - |
| 1777501348 | 20° C | 50% | 1007.6 hPa | 0 mm | - | 60 W/m² | - |
| 1777501046 | 20° C | 50% | 1007.8 hPa | 0 mm | - | 66 W/m² | - |
| 1777500744 | 20° C | 53% | 1007.8 hPa | 0 mm | - | 67 W/m² | - |
| 1777500441 | 20° C | 53% | 1007.9 hPa | 0 mm | - | 70 W/m² | - |
| 1777500136 | 20° C | 53% | 1007.8 hPa | 0 mm | - | 81 W/m² | - |
| 1777499834 | 20° C | 54% | 1008 hPa | 0 mm | - | 76 W/m² | - |
| 1777499530 | 20° C | 53% | 1008.1 hPa | 0 mm | - | 68 W/m² | - |
| 1777499228 | 20° C | 52% | 1008.2 hPa | 0 mm | - | 50 W/m² | - |
| 1777498925 | 20.56° C | 51% | 1008.3 hPa | 0 mm | - | 52 W/m² | - |
| 1777498621 | 20.56° C | 49% | 1008.2 hPa | 0 mm | - | 61 W/m² | - |
| 1777498317 | 20.56° C | 51% | 1008.2 hPa | 0 mm | - | 53 W/m² | - |
| 1777498015 | 20.56° C | 50% | 1008.3 hPa | 0 mm | - | 52 W/m² | - |
| 1777497712 | 20.56° C | 50% | 1008.3 hPa | 0 mm | - | 75 W/m² | - |
| 1777497408 | 21.11° C | 50% | 1008.2 hPa | 0 mm | - | 96 W/m² | - |
| 1777497104 | 21.11° C | 52% | 1008.3 hPa | 0 mm | - | 116 W/m² | - |
| 1777496801 | 21.11° C | 50% | 1008.3 hPa | 0 mm | - | 153 W/m² | - |
* Rain latest hour (hover to see other rain measurements)
** Current wind speed in m/s (hover to see current wind gust speed)